IK3SVW-3 Weather Reports


time (UTC)temp
C
wind
direction
speed
KPH
gust
KPH
rain 1hr
cm
rain 24hr
cm
rain mn
cm
humidity
%
barometer
mb
20260502232644 16 0 0.0 0.0 0.00 0.00 0.00 49 1019.0
20260502231544 16 0 0.0 0.0 0.00 0.00 0.00 48 1019.0
20260502230444 17 0 0.0 0.0 0.00 0.00 0.00 48 1019.0
20260502224844 17 0 0.0 0.0 0.00 0.00 0.00 47 1019.0
20260502223801 17 0 0.0 0.0 0.00 0.00 0.00 46 1019.0
20260502222644 17 0 0.0 0.0 0.00 0.00 0.00 47 1019.0
20260502221544 17 0 0.0 0.0 0.00 0.00 0.00 47 1019.0
20260502213757 17 0 0.0 0.0 0.00 0.00 0.00 48 1019.0
20260502212646 18 0 0.0 0.0 0.00 0.00 0.00 47 1019.0
20260502211547 18 0 0.0 0.0 0.00 0.00 0.00 47 1019.0
20260502210446 18 0 0.0 0.0 0.00 0.00 0.00 46 1019.0
20260502203744 18 0 0.0 0.0 0.00 0.00 0.00 44 1019.0
20260502202650 19 0 0.0 0.0 0.00 0.00 0.00 43 1019.0
20260502201545 19 0 0.0 0.0 0.00 0.00 0.00 42 1019.0
20260502200446 19 0 0.0 0.0 0.00 0.00 0.00 42 1019.0
20260502195948 20 0 0.0 0.0 0.00 0.00 0.00 41 1019.0
20260502194844 20 0 0.0 0.0 0.00 0.00 0.00 40 1019.0
20260502191544 20 0 0.0 0.0 0.00 0.00 0.00 37 1019.0
20260502190446 20 0 0.0 0.0 0.00 0.00 0.00 37 1019.0
20260502185946 20 0 0.0 0.0 0.00 0.00 0.00 36 1019.0
20260502184844 21 0 0.0 0.0 0.00 0.00 0.00 35 1019.0
20260502182644 21 0 0.0 0.0 0.00 0.00 0.00 34 1019.0
20260502180445 22 0 0.0 0.0 0.00 0.00 0.00 33 1019.0
20260502170446 24 0 0.0 0.0 0.00 0.00 0.00 25 1019.0
20260502162652 25 0 0.0 0.0 0.00 0.00 0.00 24 1019.0
20260502161545 25 0 0.0 0.0 0.00 0.00 0.00 24 1019.0
20260502160446 25 0 0.0 0.0 0.00 0.00 0.00 24 1019.0
20260502151546 24 0 0.0 0.0 0.00 0.00 0.00 26 1020.0
20260502123551 21 0 0.0 0.0 0.00 0.00 0.00 30 1021.0
20260502122645 21 0 0.0 0.0 0.00 0.00 0.00 29 1022.0
20260502121545 21 0 0.0 0.0 0.00 0.00 0.00 30 1022.0
20260502120448 21 0 0.0 0.0 0.00 0.00 0.00 31 1022.0
20260502114651 21 0 0.0 0.0 0.00 0.00 0.00 31 1022.0
20260502113544 20 0 0.0 0.0 0.00 0.00 0.00 32 1022.0
20260502113130 20 0 0.0 0.0 0.00 0.00 0.00 32 1023.0
20260502112645 20 0 0.0 0.0 0.00 0.00 0.00 32 1023.0
20260502110447 20 0 0.0 0.0 0.00 0.00 0.00 32 1023.0
20260502102644 20 0 0.0 0.0 0.00 0.00 0.00 33 1023.0
20260502101545 19 0 0.0 0.0 0.00 0.00 0.00 33 1023.0
20260502070444 16 0 0.0 0.0 0.00 0.00 0.00 39 1025.0
20260502064847 15 0 0.0 0.0 0.00 0.00 0.00 40 1025.0
20260502062651 15 0 0.0 0.0 0.00 0.00 0.00 43 1025.0
20260502061544 15 0 0.0 0.0 0.00 0.00 0.00 45 1025.0
20260502055945 14 0 0.0 0.0 0.00 0.00 0.00 45 1025.0
20260502044845 12 0 0.0 0.0 0.00 0.00 0.00 48 1025.0
20260502042644 12 0 0.0 0.0 0.00 0.00 0.00 48 1025.0
20260502040444 11 0 0.0 0.0 0.00 0.00 0.00 48 1025.0
20260502034846 11 0 0.0 0.0 0.00 0.00 0.00 48 1025.0
20260502032644 11 0 0.0 0.0 0.00 0.00 0.00 46 1025.0
20260502024844 12 0 0.0 0.0 0.00 0.00 0.00 45 1025.0
20260502023744 12 0 0.0 0.0 0.00 0.00 0.00 44 1025.0
20260502022645 12 0 0.0 0.0 0.00 0.00 0.00 44 1025.0
20260502021544 12 0 0.0 0.0 0.00 0.00 0.00 43 1025.0
20260502020444 12 0 0.0 0.0 0.00 0.00 0.00 43 1025.0
20260502014644 13 0 0.0 0.0 0.00 0.00 0.00 42 1024.0
20260502013544 12 0 0.0 0.0 0.00 0.00 0.00 42 1024.0
20260502012644 12 0 0.0 0.0 0.00 0.00 0.00 41 1025.0
20260502011544 13 0 0.0 0.0 0.00 0.00 0.00 41 1025.0
20260502010445 13 0 0.0 0.0 0.00 0.00 0.00 41 1025.0
20260502004644 13 0 0.0 0.0 0.00 0.00 0.00 39 1025.0
20260502003544 13 0 0.0 0.0 0.00 0.00 0.00 39 1025.0
20260502003147 13 0 0.0 0.0 0.00 0.00 0.00 39 1024.0
20260502002044 13 0 0.0 0.0 0.00 0.00 0.00 38 1024.0
20260502000446 14 0 0.0 0.0 0.00 0.00 0.00 38 1025.0
20260501235944 14 0 0.0 0.0 0.00 0.00 0.00 37 1025.0
20260501234844 14 0 0.0 0.0 0.00 0.00 0.00 37 1025.0
20260501233747 15 0 0.0 0.0 0.00 0.00 0.00 36 1025.0